Voltar ao catálogo

STARLINK-35489

AtivoComunicaçõesVLEO
NORAD 65857·PAYLOAD·🇺🇸 United States

Lançado Oct 3, 2025 de Vandenberg Space Force Base

Loading…

Próximas Passagens (próximas 24 horas)

TLE

AtualizadoSource: CelesTrak SupGP

Época: Sep 14, 2026, 21:23 UTC

1 65857C 25223D   26257.89145833 -.00050574  00000+0 -14942-2 0  2579
2 65857  53.1565 131.8818 0001298  93.4384 216.8201 15.34415673    19

Acompanhe STARLINK-35489 em tempo real com AllMySat

Download on the App Store